Погода в Першине

Россия / Владимирская область     56°08′05″N   38°44′11″E
В апреле 2022 года жителям России запретили посещать сайт meteo.paraplan.net по решению Генеральной прокуратуры. Аудитория сайта уменьшилась в 10 раз. Владельцы сайта не видят смысла в поддержке погодного сервера в таких условиях. Сайт будет закрыт в октябре.
темп.,
°C
ветер,
м/с
пор.,
м/с
влажн.,
%
обл.,
%
осадки,
мм/ч
давл.,
гПа
погр.,
м
30 сентября, пт
пт3000:00+8ю259668 0.0 101499
03:00+7ююв2796100 0.0 1015165
06:00+7ююв3995100 0.0 1015221
09:00+10ююв3884100 0.0 1016283
12:00+14ю5869100 0.0 1015685
15:00+15ю4879100 0.0 1015815
18:00+13ю4992100 0.2 1016501
21:00+12ю389890 0.3 1016316
1 октября, сб
сб100:00+12ююз2697100 0.0 1016359
03:00+12ююз1398100 0.0 1016109
06:00+12юв1198100 0.0 101629
09:00+12вюв1296100 0.1 1016126
12:00+13юв1392100 0.0 1015241
15:00+14вюв128999 0.0 1013345
18:00+13вюв2598100 0.0 1011187
21:00+13юв31098100 0.3 1008310
2 октября, вс
вс200:00+13ю41097100 2.0 1006503
03:00+12ююз5109295 2.5 1005683
06:00+9юз51086100 0.2 1005855
09:00+9юз51191100 0.3 1005833
12:00+9юз51089100 0.0 1007779
15:00+10зюз4781100 0.0 1007866
18:00+9юз2689100 0.0 1008415
21:00+8ююз1193100 0.1 100820
3 октября, пн
пн300:00+8всв2594100 0.0 1006163
03:00+8св51294100 3.0 1003552
06:00+9в51596100 4.4 1000646
09:00+12вюв51498100 6.1 997729
12:00+14юв71691100 2.5 9961264
15:00+13юв71793100 4.8 9951300
18:00+11ю71389100 1.2 9971047
21:00+8ю61291100 1.3 10011127
4 октября, вт
вт400:00+8ю61190100 0.2 10031355
03:00+7ююз61290100 0.6 10051318
06:00+6ю51091100 0.1 10071053
09:00+7ю5108415 0.2 1009832
12:00+11ю6117247 0.1 10111214
15:00+12ююз597376 0.6 10121231
18:00+10ю5117991 0.2 1014696
21:00+8ю5128688 0.3 1015594